sat.trackr.live / text

‹ back to catalog

ONEWEB-0324

NORAD 49193 · 2021-083H

PAYLOAD ACTIVE UNKNOWN

§ Identity

Operator
Country
UK
Launch date
2021-09-14
Launch site
TYMSC
Launch vehicle
Mass (kg)
RCS (m²)

Purposes: comms

External: N2YO · Heavens-Above · Gunter

§ Orbital elements

Epoch: 2026-09-12T03:58:25.420800Z

Period
109.20 min
Inclination
87.9180°
Eccentricity
0.0001738
Mean motion
13.18686762 rev/d
Perigee alt
1,188.4 km
Apogee alt
1,191.1 km
Semi-major
7,567.9 km
B*
1.8796e-5
RAAN
318.1740°
Arg perigee
99.8717°
Mean anomaly
260.2611°
Rev number
24,146

§ Raw data

ONEWEB-03241 49193U 21083H   26255.16557200  .00000020  00000+0  18796-4 0  99922 49193  87.9180 318.1740 0001738  99.8717 260.2611 13.18686762241468

JSON: /api/v1/satellites/49193 · /tle

For live sub-satellite position, see the globe view (requires WebGL).

§ Visibility from observer

Set your observer location to see the next 7 days of passes ≥ 10°. The values pass through the URL so the page stays shareable.

No JS? Fill the form by hand. The geolocation button needs JavaScript.